CHINASAT 9B

Last updated on Tue Sep 22 2026 00:03:15 GMT+0000 (Coordinated Universal Time)

1 49125U 21080A 26264.65173980 -.00000316 00000+0 00000+0 0 9990 2 49125 0.0310 242.5181 0003446 301.8283 152.2230 1.00270208 18613
UTC large
Height (km)
Speed (km/s)
/
Latitude / Longitude
Inclination (degrees)
Orbital Period (minutes)
Azimuth
Elevation
Range (km)
Doppler Factor

Next 0 passes for location: London (51.5072 / 0.1276)

No passes found over London.
CHINASAT 9B